Mount Shasta, CA

6:00 PM PST on November 18, 2017 (GMT -0800)
Mount Shasta

Weather History for KMHS - March, 2013

Change the Weather History Date:

Friday, March 8, 2013

  Actual Average Record
Temperature  
Mean Temperature 37 °F 41 °F  
Max Temperature 49 °F 53 °F 72 °F (2004)
Min Temperature 25 °F 30 °F 13 °F (1935)
Degree Days  
Heating Degree Days 28 24  
Month to date heating degree days 195 195  
Since 1 July heating degree days 3913 4170  
Cooling Degree Days 0 0  
Month to date cooling degree days 0 0  
Year to date cooling degree days 0 0  
Moisture  
Dew Point 23 °F    
Average Humidity 59    
Maximum Humidity 88    
Minimum Humidity 37    
Precipitation  
Precipitation 0.00 in 0.23 in 2.22 in (1978)
Month to date precipitation 1.82 1.96  
Year to date precipitation 3.67 16.25  
Sea Level Pressure  
Sea Level Pressure 30.01 in    
Wind  
Wind Speed 4 mph (North)    
Max Wind Speed 12 mph    
Max Gust Speed 23 mph    
Visibility 10 miles    
Events      
T = Trace of Precipitation, MM = Missing Value Source: NWS Daily Summary

Daily Weather History Graph

Daily Weather History Graph

Search for Another Location

Airport or City:

Trip Planner

Search our weather history database for the weather conditions in past years. The results will help you decide how hot, cold, wet, or windy it might be!

Date:

Astronomy

Mar. 08, 2013 Rise Set
Actual Time 6:31 AM PST 6:08 PM PST
Civil Twilight 6:04 AM PST 6:36 PM PST
Nautical Twilight 5:32 AM PST 7:08 PM PST
Astronomical Twilight 5:00 AM PST 7:40 PM PST
Moon 4:21 AM PST (3/8) 3:08 PM PST (3/8)
Length of Visible Light 12h 31m
Length of Day
11h 36m
Waning Crescent, 11% of the Moon is Illuminated
Mar 8
Waning Crescent
Mar 11
New
Mar 19
First Quarter
Mar 27
Full
Apr 2
Last Quarter

Hourly Weather History & Observations

Time (PST) Temp. Windchill Dew Point Humidity Pressure Visibility Wind Dir Wind Speed Gust Speed Precip Events Conditions
12:56 AM 28.9 °F - 23.0 °F 78% 30.00 in 9.0 mi Calm Calm - N/A   Clear
1:56 AM 27.0 °F - 21.9 °F 81% 29.99 in 6.0 mi Calm Calm - N/A   Haze
2:56 AM 26.1 °F - 21.0 °F 81% 29.98 in 10.0 mi Calm Calm - N/A   Clear
3:56 AM 25.0 °F - 21.9 °F 88% 29.98 in 10.0 mi Calm Calm - N/A   Clear
4:56 AM 27.0 °F - 21.9 °F 81% 29.98 in 10.0 mi Calm Calm - N/A   Clear
5:56 AM 26.1 °F - 21.9 °F 84% 30.00 in 10.0 mi Calm Calm - N/A   Clear
6:56 AM 26.1 °F - 21.9 °F 84% 30.01 in 10.0 mi Calm Calm - N/A   Clear
7:56 AM 32.0 °F - 26.1 °F 79% 30.01 in 10.0 mi Calm Calm - N/A   Clear
8:56 AM 37.9 °F 34.4 °F 26.1 °F 62% 30.00 in 10.0 mi Variable 4.6 mph - N/A   Clear
9:56 AM 39.9 °F 35.8 °F 25.0 °F 55% 30.00 in 10.0 mi Variable 5.8 mph - N/A   Clear
10:56 AM 43.0 °F 38.8 °F 25.0 °F 49% 29.99 in 10.0 mi North 6.9 mph - N/A   Clear
11:56 AM 45.0 °F 41.2 °F 24.1 °F 44% 29.98 in 10.0 mi Variable 6.9 mph - N/A   Clear
12:56 PM 46.0 °F 43.1 °F 21.9 °F 39% 29.97 in 10.0 mi NNW 5.8 mph - N/A   Clear
1:56 PM 48.0 °F - 24.1 °F 39% 29.95 in 10.0 mi Variable 6.9 mph - N/A   Clear
2:56 PM 48.9 °F - 24.1 °F 38% 29.95 in 10.0 mi Variable 5.8 mph - N/A   Clear
3:56 PM 46.9 °F - 21.9 °F 37% 29.96 in 10.0 mi Variable 5.8 mph - N/A   Clear
4:56 PM 46.9 °F - 21.9 °F 37% 29.96 in 10.0 mi Variable 6.9 mph - N/A   Clear
5:56 PM 43.0 °F - 21.9 °F 43% 30.00 in 10.0 mi Calm Calm - N/A   Clear
6:56 PM 43.0 °F 38.2 °F 21.9 °F 43% 30.03 in 10.0 mi North 8.1 mph 19.6 mph N/A   Clear
7:56 PM 39.0 °F 33.4 °F 21.9 °F 50% 30.07 in 10.0 mi NW 8.1 mph - N/A   Clear
8:56 PM 37.9 °F 33.5 °F 19.9 °F 48% 30.09 in 10.0 mi Variable 5.8 mph - N/A   Clear
9:56 PM 37.9 °F - 23.0 °F 55% 30.11 in 10.0 mi Calm Calm - N/A   Clear
10:56 PM 37.0 °F 33.3 °F 23.0 °F 57% 30.14 in 10.0 mi Variable 4.6 mph - N/A   Mostly Cloudy
11:56 PM 36.0 °F 31.1 °F 23.0 °F 59% 30.15 in 10.0 mi NNE 5.8 mph - N/A   Clear